User: anonymous   Login
Location: Bieg
(49.3499°N, 10.3835°E)
Time: 04:50:04
(UTC+00:00)
Language:

Meteor 1-4 Rocket - Orbit

View from above orbital plane
View from above orbital plane
View from above satellite
View from above satellite

Ground track
Ground track

The orbit data is extracted from the following two-line orbital elements,

1 04394U 70037B   24204.56238195  .00086905  00000-0  68867-3 0  9994
2 04394  81.2257 180.3886 0018284 174.0099 186.1382 15.70776392962782
Epoch (UTC): 22 July 2024 13:29:49
Eccentricity: 0.0018284
inclination: 81.2257°
perigee height: 344 km
apogee height: 369 km
right ascension of ascending node: 180.3886°
argument of perigee: 174.0099°
revolutions per day: 15.70776392
mean anomaly at epoch: 186.1382°
orbit number at epoch: 96278

The dashed part of the orbit path shows where the satellite is in the earth's shadow,  

DLR